Location: Le Domaine
(47.0333°N, 76.5361°W)
Time: 07:35:00
(UTC-05:00)

SR - Visible Passes

Search period start: 13 November 2019 00:00
Search period end: 23 November 2019 00:00
Orbit: 574 x 882 km, 66.7° (Epoch: 12 November)

Date Brightness Start Highest point End Pass type
(mag) Time Alt. Az. Time Alt. Az. Time Alt. Az.
13 Nov ? 17:02:28 10° SW 17:07:40 52° NW 17:13:19 10° NNE visible
13 Nov ? 18:47:38 10° WNW 18:51:12 17° NNW 18:54:53 10° NNE visible
14 Nov ? 17:56:30 10° W 18:00:52 23° NW 18:05:27 10° NNE visible
14 Nov ? 19:43:33 10° NNW 19:45:15 11° N 19:46:09 11° N visible
15 Nov ? 17:05:46 10° WSW 17:10:42 34° NW 17:15:58 10° NNE visible
15 Nov ? 18:51:57 10° NW 18:54:40 13° NNW 18:57:26 10° N visible
16 Nov ? 18:00:31 10° WNW 18:04:12 17° NNW 18:08:01 10° NNE visible
16 Nov ? 19:47:45 10° NNW 19:48:49 11° N 19:48:49 11° N visible
17 Nov ? 17:09:26 10° W 17:13:53 24° NW 17:18:34 10° NNE visible
17 Nov ? 18:56:25 10° NNW 18:58:14 11° N 19:00:05 10° N visible
18 Nov ? 18:04:49 10° NW 18:07:40 14° NNW 18:10:34 10° N visible
18 Nov ? 19:50:57 10° N 19:51:28 11° N 19:51:28 11° N visible
19 Nov ? 17:13:25 10° WNW 17:17:13 18° NNW 17:21:08 10° NNE visible
19 Nov ? 19:00:40 10° NNW 19:01:52 11° N 19:03:04 10° N visible
20 Nov ? 18:09:17 10° NNW 18:11:14 12° N 18:13:11 10° N visible
20 Nov ? 19:53:37 10° N 19:54:05 11° N 19:54:05 11° N visible
21 Nov ? 17:17:42 10° NW 17:20:40 14° NNW 17:23:41 10° NNE visible
21 Nov ? 19:03:59 10° N 19:05:30 11° N 19:05:42 11° N visible
22 Nov ? 18:13:35 10° NNW 18:14:51 11° N 18:16:08 10° N visible
22 Nov ? 19:56:11 10° NNW 19:56:43 11° N 19:56:43 11° N visible
